www.pogodaiklimat.ru

Погода и климат >> Архив погоды >> Кувейт >> Абдали


ПОГОДА в Абдали

  • Прогноз погоды в Абдали
  • Монитор погоды в Абдали

АРХИВ ПОГОДЫ в Абдали

Время (UTC), дата Ветер
(напр.,м/с)
 
Видим.   Явления Облачность Т
(С)
Тd
(С)
f
(%)
Тe
(С)
Тes
(С)
Комфортность P
(гПа)
Po
(гПа)
Тmin
(С)
Tmax
(С)
R
(мм)
R24
(мм)
S
(см)
03 9.07 СВ 2-5
{6}
20 км н/о +30.5 +3.4 18 +28 +28 жарко 998.1 990.3 9
06 9.07 С 5-9
{9}
20 км н/о +39.9 +5.7 12 +37 +37 очень
жарко
998.3 990.7 292
09 9.07 С 5-11
{12}
20 км н/о +43.8 +9.7 13 +42 +42 опасность
перегрева
997.2 989.7 426
12 9.07 С 6-14
{15}
20 км н/о +44.2 +9.7 13 +43 +43 опасность
перегрева
996.0 988.5 341
15 9.07 СВ 5-11
{15}
19 км н/о +41.7 +9.1 14 +40 +40 очень
жарко
995.7 988.2 67
18 9.07 С 1-2
{15}
19 км н/о +33.8 +9.4 22 +33 +33 жарко 996.8 989.1
21 9.07 СЗ 3-6
{6}
19 км н/о +33.7 +6.2 18 +32 +32 жарко 995.7 988.0 +29.1 +45.1
00 10.07 СЗ 4-6
{6}
20 км н/о +31.8 +3.3 16 +29 +29 жарко 994.4 986.6
03 10.07 СЗ 3-8
{8}
20 км н/о +31.6 +2.6 16 +29 +29 жарко 994.8 987.0 8
06 10.07 С 4-7
{9}
19 км н/о +40.0 +7.9 14 +38 +38 очень
жарко
994.8 987.2 271
09 10.07 СВ 6-13
{13}
19 км н/о +44.3 +6.5 10 +42 +42 опасность
перегрева
993.5 986.0 411
12 10.07 С 5-10
{17}
20 км н/о +45.9 +2.9 7 +42 +42 опасность
перегрева
992.3 984.9 337
15 10.07 С 5-9
{13}
20 км н/о +43.8 +2.7 8 +40 +40 очень
жарко
992.7 985.2 70
18 10.07 С 2-4
{13}
20 км н/о +37.3 +3.3 12 +34 +34 очень
жарко
994.0 986.4
21 10.07 СЗ 3-4
{5}
20 км н/о +33.7 +2.0 13 +31 +31 жарко 994.0 986.3 +30.1 +46.7
00 11.07 СЗ 3-5
{5}
20 км н/о +31.9 +4.0 17 +29 +29 жарко 994.0 986.2
03 11.07 СЗ 3-5
{6}
20 км н/о +31.7 +4.3 18 +29 +29 жарко 995.5 987.7 8
06 11.07 С 5-10
{11}
20 км н/о +41.3 +4.1 10 +38 +38 очень
жарко
996.7 989.1 279
09 11.07 СЗ 6-15
{15}
20 км н/о +45.1 +2.8 8 +42 +42 опасность
перегрева
996.2 988.7 434
12 11.07 С 5-10
{15}
20 км н/о +45.7 +0.8 6 +42 +42 опасность
перегрева
994.9 987.5 357
15 11.07 С 4-7
{15}
20 км н/о +43.4 +5.9 10 +41 +41 опасность
перегрева
995.2 987.7 76
18 11.07 С 2-4
{15}
20 км н/о +36.3 +4.2 14 +33 +33 жарко 997.0 989.3
21 11.07 С 3-5
{6}
20 км н/о +34.1 +4.3 16 +32 +32 жарко 996.6 988.9 +30.9 +46.5
00 12.07 С 2-4
{6}
20 км н/о +32.1 +4.2 17 +30 +30 жарко 996.7 988.9
03 12.07 СЗ 3-5
{5}
20 км н/о +31.0 +4.2 18 +29 +29 жарко 997.6 989.8 7
06 12.07 С 5-9
{9}
20 км н/о +41.8 +4.9 11 +39 +39 очень
жарко
998.3 990.7 292
09 12.07 С 6-13
{15}
20 км н/о +45.9 +2.9 7 +42 +42 опасность
перегрева
997.6 990.1 441
12 12.07 С 6-12
{15}
20 км н/о +46.8 +4.8 8 +44 +44 опасность
перегрева
996.3 988.9 342
15 12.07 С 6-13
{14}
20 км н/о +44.4 +4.8 9 +41 +41 опасность
перегрева
996.4 988.9 76
18 12.07 С 5-12
{14}
20 км н/о +40.3 +7.4 14 +38 +38 очень
жарко
997.8 990.2
21 12.07 С 4-7
{9}
20 км н/о +37.1 +6.7 16 +35 +35 очень
жарко
997.8 990.1 +29.7 +47.3
00 13.07 С 3-5
{9}
20 км н/о +32.7 +6.0 19 +31 +31 жарко 997.5 989.7
03 13.07 С 4-6
{7}
20 км н/о +32.4 +6.6 20 +31 +31 жарко 998.4 990.6 9
06 13.07 С 6-13
{13}
19 км н/о +42.6 +7.3 12 +40 +40 очень
жарко
998.7 991.2 295
09 13.07 С 9-16
{17}
17 км н/о +45.0 +10.1 13 +44 +44 опасность
перегрева
998.5 991.0 430
12 13.07 С 7-16
{17}
16 км н/о +45.8 +8.3 11 +44 +44 опасность
перегрева
997.4 989.9 338
15 13.07 С 6-12
{16}
19 км н/о +43.4 +3.5 9 +40 +40 очень
жарко
997.5 990.0 70
18 13.07 С 5-10
{16}
17 км н/о +39.0 +5.5 13 +36 +36 очень
жарко
999.2 991.6
21 13.07 СЗ 2-4
{10}
19 км н/о +32.8 +4.2 17 +30 +30 жарко 999.4 991.6 +31.4 +46.3
00 14.07 СЗ 2-4
{10}
20 км н/о +29.4 +3.2 19 +27 +27 жарко 999.1 991.2
03 14.07 СЗ 4-6
{7}
20 км н/о +29.0 +2.7 19 +27 +27 жарко 1000.3 992.4 7
06 14.07 С 5-9
{11}
19 км н/о +38.4 +8.7 17 +37 +37 очень
жарко
1000.8 993.1 297
09 14.07 С 5-11
{12}
20 км н/о +42.2 +10.0 15 +41 +41 опасность
перегрева
999.9 992.3 439
12 14.07 С 5-11
{15}
20 км н/о +43.5 +10.2 14 +42 +42 опасность
перегрева
998.6 991.1 348
15 14.07 СВ 5-11
{13}
19 км н/о +41.3 +7.6 13 +39 +39 очень
жарко
998.1 990.5 76
18 14.07 С 2-5
{13}
20 км н/о +37.3 +8.0 17 +35 +35 очень
жарко
999.7 992.0
21 14.07 С 3-5
{6}
20 км н/о +33.9 +8.9 22 +33 +33 жарко 999.2 991.4 +27.9 +43.6
00 15.07 СЗ 2-4
{6}
20 км н/о +29.7 +10.0 29 +30 +30 жарко 998.8 990.9
03 15.07 С 4-7
{7}
20 км н/о +30.3 +8.6 26 +30 +30 жарко 999.2 991.4 6
06 15.07 С 5-12
{12}
20 км н/о +39.3 +8.7 16 +37 +37 очень
жарко
999.8 992.2 287
09 15.07 С 7-15
{15}
20 км н/о +42.8 +8.9 13 +41 +41 опасность
перегрева
998.8 991.3 437
12 15.07 С 6-12
{16}
20 км н/о +44.0 +7.8 12 +42 +42 опасность
перегрева
997.1 989.6 354
15 15.07 С 6-12
{13}
20 км н/о +42.0 +2.8 9 +39 +39 очень
жарко
996.6 989.1 76
18 15.07 С 4-8
{14}
20 км н/о +38.0 +4.6 13 +35 +35 очень
жарко
997.5 989.9
21 15.07 С 6-9
{9}
19 км н/о +34.6 +5.0 16 +32 +32 жарко 997.0 989.3 +28.5 +44.7
00 16.07 С 4-6
{9}
20 км н/о +32.5 +4.7 17 +30 +30 жарко 996.1 988.3

 

Местоположение метеостанции Абдали (Кувейт): широта 30.08 долгота 47.70 высота над уровнем моря 70 м.

В архиве по умолчанию представлена погода в Абдали за последнюю неделю. Архивные данные за месяц целиком и за предыдущие месяцы, начиная с января 2011 года, Вы можете получить, выбрав интересующий диапазон дат из раскрывающегося списка и нажав кнопку "Ввод!".


*Определитесь, кто Вы:
робот инопланетянин человек

Внимание! Время в таблицах - всемирное. Для получения местного времени необходимо прибавить поправку, которая равна 3 ч.

Смотрите также архив погоды в соседних городах и на ближайших метеорологических станциях:

Погода на Метеостанции Sabriyah (Кувейт) (39 км)
Погода на Метеостанции Mintribah (Кувейт) (43 км)
Погода в Басре аэропорт (Ирак) (50 км)
Погода на Метеостанции Jal Aliyah (Кувейт) (54 км)
Погода в Басре (Ирак) (55 км)
Погода в Абадане (Иран) (62 км)
Погода на Бубияне (Кувейт) (74 км)
Погода в Эль-Фао (Ирак) (78 км)
Погода в Эль-Джахра (Кувейт) (85 км)
Погода Остров Файлака (Кувейт) (88 км)

Пояснения к столбцам:

Ветер - указаны скорость ветра в м/с - средняя за 10 мин, порывы в срок и между сроками (в фигурных скобках) и направление, откуда дует ветер: С - северный, СВ - северо-восточный, В - восточный, ЮВ - юго-восточный, Ю - южный, ЮЗ - юго-западный, З - западный, СЗ - северо-западный.
Видимость - горизонтальная дальность видимости в метрах или километрах. При видимости от 1 до 10 км при отсутствии осадков обычно наблюдается дымка, при ухудшении видимости до 1 км и менее - туман. В сухую погоду видимость может ухудшаться дымом, пылью или мглою.
Явления - указаны атмосферные явления, наблюдавшиеся в срок или в последний час перед сроком; фигурными скобками обозначены явления, наблюдавшиеся между сроками (за 1-3 часа до срока); квадратными скобками обозначены град или гололедные отложения с указанием их диаметра в мм.
Облачность - указаны через наклонную черту общая и нижняя облачность в баллах и высота нижней границы облаков в метрах; квадратными скобками обозначены формы облаков: Ci - перистые, Cs - перисто-слоистые, Cc - перисто-кучевые, Ac - высококучевые, As - высокослоистые, Sc - слоисто-кучевые, Ns - слоисто-дождевые, Cu - кучевые, Cb - кучево-дождевые. Подробнее классификацию облаков см. в Атласе облаков (PDF).
T - Температура воздуха - температура, измеренная на высоте 2 м над землей.
Td - Температура точки росы - температура, при понижении до которой содержащийся в воздухе водяной пар достигнет насыщения.
f - Относительная влажность воздуха - влажноcть воздуха, измеренная на высоте 2 м над землей.
Te - Эффективная температура - температура, которую ощущает одетый по сезону человек в тени. Характеристика душности погоды. При расчете учитывается влияние влажности воздуха и скорости ветра на теплоощущения человека.
Tes - Эффективная температура на солнце - температура, которую ощущает человек, с поправкой на солнечный нагрев. Характеристика знойности погоды. Зависит от высоты солнца над горизонтом, облачности и скорости ветра. Ночью, в пасмурную погоду, а также при ветре 12 м/с и более поправка равна нулю.
P - Атмосферное давление - приведенное к уровню моря атмосферное давление.
Po - Атмосферное давление - измеренное на уровне метеостанции атмосферное давление.
Tmin - Минимальная температура - минимум температуры воздуха на высоте 2 м над землей.
Tmax - Максимальная температура - максимум температуры воздуха на высоте 2 м над землей.
R - Количество осадков - Количество выпавших осадков за период времени, мм. При наведении курсора мыши на число - период времени, за который выпало указанное количество осадков.
R24 - Количество осадков - Количество выпавших осадков за 24 часа, мм.
S - Снежный покров - Высота снежного покрова, см. При наведении курсора мыши на число - состояние снежного покрова и степень покрытия местности в баллах.